Regional Weather Roundup
Issued by NWS

Home | Current Version | Previous Version | Graphics & Text | Print | Product List | Glossary On
Versions: 1 2 3 4 5 6 7 8 9 10 11 12 13 14 15 16 17 18 19 20 21 22 23 24 25 26 27 28 29 30 31 32 33 34 35 36 37 38 39 40 41 42 43 44 45 46 47 48 49 50
000
ASUS43 KLMK 241710
RWRKY
KENTUCKY REGIONAL WEATHER ROUNDUP
NATIONAL WEATHER SERVICE LOUISVILLE KY
100 PM EDT THU MAY 24 2018

NOTE "FAIR" INDICATES FEW OR NO CLOUDS BELOW 12,000 FEET
WITH NO SIGNIFICANT WEATHER AND/OR OBSTRUCTIONS TO VISIBILITY.

KYZ001>023-026-027-061>063-070>075-241800-
WESTERN AND SOUTH CENTRAL KENTUCKY

CITY           SKY/WX    TMP DP  RH WIND       PRES   REMARKS
PADUCAH        FAIR      85  66  53 VRB5      30.11F
HENDERSON      NOT AVBL
OWENSBORO      FAIR      80  62  54 NE8       30.15S
HOPKINSVILLE   FAIR      82  64  55 N7        30.12F
BOWLING GREEN  FAIR      83  66  56 NE5       30.13F
GLASGOW        FAIR      84  61  46 CALM      30.14F
$$

KYZ024-025-028>034-038-045-046-053-241800-
NORTH CENTRAL KENTUCKY

CITY           SKY/WX    TMP DP  RH WIND       PRES   REMARKS
LOUISVILLE/SDF FAIR      81  53  37 N7        30.15F
LOUISVILLE/LOU FAIR      80  57  45 NE8       30.16F
FORT KNOX      FAIR      78  58  50 N7        30.16F
$$

KYZ035>037-039>044-047>052-055>060-089>105-241800-
NORTHEAST KENTUCKY

CITY           SKY/WX    TMP DP  RH WIND       PRES   REMARKS
LEXINGTON      FAIR      78  61  55 NE7       30.18F
COVINGTON      FAIR      77  58  51 E8        30.19F
FRANKFORT      FAIR      79  58  48 E7        30.17F
$$

KYZ054-064>069-076>088-106>120-241800-
SOUTHEAST KENTUCKY

CITY           SKY/WX    TMP DP  RH WIND       PRES   REMARKS
JACKSON        FAIR      78  61  55 CALM      30.17F
LONDON         FAIR      80  65  59 NE7       30.15F
SOMERSET       FAIR      79  61  53 MISG      30.16F
MIDDLESBORO    FAIR      83  64  53 CALM      30.14F
MONTICELLO     FAIR      81  65  58 VRB6G16   30.16F
$$





USA.gov is the U.S. government's official web portal to all federal, state and local government web resources and services.